TimeCET,TemperatureF,Dew PointF,Humidity,Sea Level PressureIn,VisibilityMPH,Wind Direction,Wind SpeedMPH,Gust SpeedMPH,PrecipitationIn,Events,Conditions,WindDirDegrees,DateUTC
12:00 AM,46.4,41.0,81,30.27,6.2,NW,4.6,-,N/A,,Mostly Cloudy,320,2012-11-07 23:00:00
5:30 AM,48.2,44.6,87,30.21,6.2,NW,1.2,-,N/A,,Mostly Cloudy,310,2012-11-08 04:30:00
6:00 AM,48.2,44.6,87,30.21,6.2,North,1.2,-,N/A,,Mostly Cloudy,350,2012-11-08 05:00:00
6:30 AM,48.2,42.8,82,30.18,6.2,NNE,3.5,-,N/A,,Mostly Cloudy,30,2012-11-08 05:30:00
7:00 AM,48.2,42.8,82,30.18,6.2,East,3.5,-,N/A,,Mostly Cloudy,90,2012-11-08 06:00:00
7:30 AM,48.2,42.8,82,30.18,6.2,Calm,Calm,-,N/A,,Mostly Cloudy,0,2012-11-08 06:30:00
8:00 AM,48.2,42.8,82,30.18,6.2,Variable,1.2,-,N/A,,Mostly Cloudy,0,2012-11-08 07:00:00
8:30 AM,48.2,41.0,76,30.18,6.2,Variable,2.3,-,N/A,,Mostly Cloudy,0,2012-11-08 07:30:00
9:00 AM,48.2,41.0,76,30.21,6.2,Calm,Calm,-,N/A,,Mostly Cloudy,0,2012-11-08 08:00:00
9:30 AM,50.0,42.8,76,30.21,6.2,SE,1.2,-,N/A,,Mostly Cloudy,140,2012-11-08 08:30:00
10:00 AM,51.8,42.8,71,30.21,6.2,SSE,3.5,-,N/A,,Mostly Cloudy,150,2012-11-08 09:00:00
10:30 AM,53.6,41.0,62,30.18,6.2,South,4.6,-,N/A,,Scattered Clouds,170,2012-11-08 09:30:00
11:00 AM,53.6,42.8,67,30.18,6.2,Variable,2.3,-,N/A,,Scattered Clouds,0,2012-11-08 10:00:00
11:30 AM,55.4,44.6,67,30.18,6.2,Calm,Calm,-,N/A,,Scattered Clouds,0,2012-11-08 10:30:00
12:00 PM,53.6,44.6,72,30.18,6.2,NNW,6.9,-,N/A,,Scattered Clouds,330,2012-11-08 11:00:00
12:30 PM,55.4,46.4,72,30.15,6.2,Variable,1.2,-,N/A,,Partly Cloudy,0,2012-11-08 11:30:00
1:00 PM,55.4,44.6,67,30.15,6.2,Variable,1.2,-,N/A,,Partly Cloudy,0,2012-11-08 12:00:00
2:00 PM,57.2,48.2,72,30.12,6.2,ENE,2.3,-,N/A,,Mostly Cloudy,60,2012-11-08 13:00:00
2:30 PM,57.2,46.4,67,30.12,6.2,SSW,9.2,-,N/A,,Scattered Clouds,210,2012-11-08 13:30:00
3:00 PM,57.2,48.2,72,30.12,6.2,South,4.6,-,N/A,,Scattered Clouds,170,2012-11-08 14:00:00
3:30 PM,57.2,48.2,72,30.12,6.2,Calm,Calm,-,N/A,,Scattered Clouds,0,2012-11-08 14:30:00
4:00 PM,55.4,50.0,82,30.15,4.3,WSW,1.2,-,N/A,Rain,Rain,240,2012-11-08 15:00:00
4:30 PM,53.6,50.0,88,30.12,6.2,SSW,8.1,-,N/A,Rain,Light Rain,200,2012-11-08 15:30:00
5:30 PM,53.6,50.0,88,30.12,6.2,Calm,Calm,-,N/A,Rain,Light Rain,0,2012-11-08 16:30:00
6:00 PM,53.6,50.0,88,30.12,6.2,Calm,Calm,-,N/A,Rain,Light Rain,0,2012-11-08 17:00:00
6:30 PM,51.8,50.0,94,30.09,6.2,NW,2.3,-,N/A,Rain,Light Rain,310,2012-11-08 17:30:00
7:00 PM,51.8,50.0,94,30.09,6.2,WNW,2.3,-,N/A,,Mostly Cloudy,300,2012-11-08 18:00:00
7:30 PM,51.8,50.0,94,30.09,6.2,Calm,Calm,-,N/A,,Mostly Cloudy,0,2012-11-08 18:30:00
8:00 PM,51.8,50.0,94,30.09,6.2,Variable,1.2,-,N/A,,Mostly Cloudy,0,2012-11-08 19:00:00
8:30 PM,51.8,50.0,94,30.09,6.2,East,4.6,-,N/A,,Mostly Cloudy,80,2012-11-08 19:30:00
9:00 PM,51.8,50.0,94,30.09,6.2,SSW,3.5,-,N/A,,Mostly Cloudy,210,2012-11-08 20:00:00
9:30 PM,53.6,48.2,82,30.09,6.2,Variable,1.2,-,N/A,,Mostly Cloudy,0,2012-11-08 20:30:00
10:00 PM,51.8,50.0,94,30.06,6.2,NE,2.3,-,N/A,,Mostly Cloudy,50,2012-11-08 21:00:00
10:30 PM,51.8,50.0,94,30.06,6.2,Variable,1.2,-,N/A,,Mostly Cloudy,0,2012-11-08 21:30:00
11:00 PM,51.8,50.0,94,30.06,6.2,Calm,Calm,-,N/A,,Mostly Cloudy,0,2012-11-08 22:00:00
11:30 PM,53.6,48.2,82,30.06,6.2,SW,1.2,-,N/A,,Mostly Cloudy,230,2012-11-08 22:30:00